Regional Weather Roundup
Issued by NWS

Home | Current Version | Previous Version | Graphics & Text | Print | Product List | Glossary On
Versions: 1 2 3 4 5 6 7 8 9 10 11 12 13 14 15 16 17 18 19 20 21 22 23 24 25 26 27 28 29 30 31 32 33 34 35 36 37 38 39 40 41 42 43 44 45 46 47 48 49 50
000
ASUS43 KLSX 241207
RWRMO

WEATHER SUMMARY FOR MISSOURI
NATIONAL WEATHER SERVICE SPRINGFIELD MO
700 AM CDT SUN SEP 24 2017

NOTE: "FAIR" INDICATES FEW OR NO CLOUDS BELOW 12,000 FEET WITH NO
       SIGNIFICANT WEATHER AND/OR OBSTRUCTIONS TO VISIBILITY.
       CURRENT SKY AND/OR WEATHER CONDITIONS ARE NOT AVAILABLE FOR
       CHILLICOTHE AND FARMINGTON.

MOZ001>031-035>038-043-044-053-054-241300-
...NORTHERN AND WESTERN MISSOURI...

CITY           SKY/WX    TMP DP  RH WIND       PRES   REMARKS
KANSAS CTY INT CLEAR     69  65  86 S9        29.96R
6HR MIN TEMP:  67; 6HR MAX TEMP:  72;

KANSAS C DTWN  CLEAR     73  66  78 SW6       29.95S
6HR MIN TEMP:  73; 6HR MAX TEMP:  79;

LEE`S SUMMIT   CLEAR     71  66  84 S8        29.98R
6HR MIN TEMP:  71; 6HR MAX TEMP:  76;

ST JOSEPH      CLEAR     69  67  93 SE5       29.95R
6HR MIN TEMP:  64; 6HR MAX TEMP:  70;

CHILLICOTHE      N/A     69  66  90 S3        29.99S
6HR MIN TEMP:  68; 6HR MAX TEMP:  73;

KIRKSVILLE     CLEAR     64  61  90 SE6       30.02R
6HR MIN TEMP:  63; 6HR MAX TEMP:  71;


$$
MOZ066>068-077>081-088>096-101>105-241300-
...SOUTHWEST MISSOURI...

CITY           SKY/WX    TMP DP  RH WIND       PRES   REMARKS
SPRINGFIELD    CLEAR     67  64  90 SE5       30.01R
6HR MIN TEMP:  67; 6HR MAX TEMP:  74;

JOPLIN         CLEAR     70  67  90 SE8       29.98S
6HR MIN TEMP:  69; 6HR MAX TEMP:  77;

BRANSON        CLEAR     66  64  94 CALM      30.03S

$$
MOZ032>034-039>042-045>050-055>058-069>072-241300-
...CENTRAL MISSOURI...

CITY           SKY/WX    TMP DP  RH WIND       PRES   REMARKS
COLUMBIA       CLEAR     69  64  84 SE6       30.03R
6HR MIN TEMP:  69; 6HR MAX TEMP:  75;

JEFFERSON CITY CLEAR     66  62  87 SE7       30.02R
6HR MIN TEMP:  66; 6HR MAX TEMP:  73;

ROLLA          CLEAR     67  64  90 CALM      30.05R
6HR MIN TEMP:  65; 6HR MAX TEMP:  73;

SEDALIA        CLEAR     67  66  97 S5        30.02R
6HR MIN TEMP:  67; 6HR MAX TEMP:  72;

WHITEMAN AFB   CLEAR     68  68 100 S6        29.99R
WARRENSBURG    CLEAR     68  63  83 CALM      29.99R
OSAGE BEACH    CLEAR     66  63  90 SE5       30.03R

$$
MOZ051-052-059>065-241300-
...EAST CENTRAL MISSOURI...

CITY           SKY/WX    TMP DP  RH WIND       PRES   REMARKS
ST LOUIS INTL  PTCLDY    70  64  81 E3        30.05R
6HR MIN TEMP:  69; 6HR MAX TEMP:  79;

SPIRIT OF STL  CLEAR     66  65  96 CALM      30.04R FOG
6HR MIN TEMP:  64; 6HR MAX TEMP:  68;

ST CHARLES     CLEAR     66  63  90 E7        30.04R
6HR MIN TEMP:  66; 6HR MAX TEMP:  70;


$$
MOZ072>076-082>087-097>100-106>115-241300-
...SOUTH CENTRAL AND SOUTHEAST MISSOURI...

CITY           SKY/WX    TMP DP  RH WIND       PRES   REMARKS
CAPE GIRARDEAU CLEAR     67  66  97 CALM      30.03R
6HR MIN TEMP:  65; 6HR MAX TEMP:  70;

FARMINGTON     CLEAR     63  61  93 CALM      30.07R
6HR MIN TEMP:  63; 6HR MAX TEMP:  67;

POPLAR BLUFF   CLEAR     67  66  97 CALM      30.02R
6HR MIN TEMP:  66; 6HR MAX TEMP:  70;

WEST PLAINS    CLEAR     64  62  93 CALM      30.05R
6HR MIN TEMP:  63; 6HR MAX TEMP:  67;


$$



USA.gov is the U.S. government's official web portal to all federal, state and local government web resources and services.